Regional Weather Roundup
Issued by NWS

Home | Current Version | Previous Version | Graphics & Text | Print | Product List | Glossary Off
Versions: 1 2 3 4 5 6 7 8 9 10 11 12 13 14 15 16 17 18 19 20 21 22 23 24 25 26 27 28 29 30 31 32 33 34 35 36 37 38 39 40 41 42 43 44 45 46 47 48 49 50

791
ASUS43 KMKX 270500
RWRWI

WISCONSIN REGIONAL WEATHER ROUNDUP
NATIONAL WEATHER SERVICE MILWAUKEE/SULLIVAN WI
1200 AM CDT TUE SEP 27 2016

NOTE: "FAIR" INDICATES FEW OR NO CLOUDS BELOW 12,000 FEET WITH NO
SIGNIFICANT WEATHER AND/OR OBSTRUCTIONS TO VISIBILITY.

WIZ001-002-006>008-014>016-023>028-270600-
NORTHWEST WISCONSIN

CITY           SKY/WX    TMP DP  RH WIND       PRES   REMARKS
SUPERIOR ARPT  CLOUDY    54  44  69 W9G18     29.72F
ASHLAND        LGT RAIN  51  46  83 W14G23    29.67F
HAYWARD        CLOUDY    54  42  64 VRB7      29.73F
SIREN          CLOUDY    55  40  58 NW18G25   29.78S
CUMBERLAND     MOCLDY    52  39  62 W13G21    29.78S
RICE LAKE      MOCLDY    53  40  61 W8        29.79S
CHETEK         NOT AVBL
LADYSMITH      CLOUDY    55  43  64 W13G20    29.76F
EAU CLAIRE     NOT AVBL
MENOMONIE      CLEAR     55  39  55 W13G21    29.81F
NEW RICHMOND   CLEAR     51  39  64 W10       29.82F
OSCEOLA        CLEAR     55  40  58 W14G22    29.85F
$$

WIZ003>005-009-010-017-018-270600-
NORTH CENTRAL WISCONSIN

CITY           SKY/WX    TMP DP  RH WIND       PRES   REMARKS
MANITOWISH WTR NOT AVBL
ARBOR VITAE    CLOUDY    52  49  91 W14G28    29.67F
WOODRUFF       CLOUDY    52  49  91 W14G28    29.67F
RHINELANDER    CLOUDY    49  46  90 W16       29.68F
EAGLE RIVER    CLOUDY    48  47  95 W15G31    29.65S
LAND O LAKES   CLOUDY    48  46  93 W12G17    29.64F FOG
PHILLIPS       CLOUDY    50  44  79 W6        29.71F
TOMAHAWK       CLOUDY    50  42  74 W12       29.72F
MEDFORD        CLOUDY    52  40  64 W7        29.74F
MERRILL        CLOUDY    53  42  65 W12       29.73F
$$

WIZ029-030-035-036-043>047-270600-
CENTRAL WISCONSIN

CITY           SKY/WX    TMP DP  RH WIND       PRES   REMARKS
WAUSAU         CLOUDY    53  40  61 W14       29.72F
MOSINEE        CLOUDY    52  39  62 W12G17    29.76F
MARSHFIELD     MOCLDY    52  39  61 W9        29.76F
STEVENS POINT  MOCLDY    52  38  59 W13       29.76F
WAUPACA        MOCLDY    56  40  56 W8        29.77F
WAUTOMA        MOCLDY    50  41  71 SW6       29.80
WISC RAPIDS    CLOUDY    53  40  61 W9        29.79F
CAMP DOUGLAS   NOT AVBL
$$

WIZ011>013-019>022-031-037>040-048>050-270600-
NORTHEAST WISCONSIN

CITY           SKY/WX    TMP DP  RH WIND       PRES   REMARKS
ANTIGO         CLOUDY    50  42  74 W14G20    29.71F
SHAWANO        PTCLDY    56  40  56 W10G16    29.73F
OCONTO         NOT AVBL
STURGEON BAY   MOCLDY    57  43  59 W20G28    29.70F
GREEN BAY      MOCLDY    54  43  66 SW9       29.73F
MANITOWOC      NOT AVBL
APPLETON       CLOUDY    52  37  58 W10       29.75F
CLINTONVILLE   NOT AVBL
OSHKOSH        CLEAR     53  39  59 SW6       29.77F
$$

WIZ032>034-041-042-053>061-270600-
SOUTHWEST WISCONSIN

CITY           SKY/WX    TMP DP  RH WIND       PRES   REMARKS
LA CROSSE      CLEAR     60  36  40 W16       29.84S
SPARTA         CLEAR     42  40  95 SW3       29.84F
VIROQUA        CLEAR     51  36  57 W7        29.86F
BOSCOBEL       CLEAR     51  42  71 SW3       29.88F
PRAIRIE DU CHI CLEAR     57  33  40 W10       29.89S
PLATTEVILLE      N/A    N/A N/A N/A SW8       29.90F
$$

WIZ056-057-062-063-064-067-068-270600-
SOUTH CENTRAL WISCONSIN

CITY           SKY/WX    TMP DP  RH WIND       PRES   REMARKS
REEDSBURG      NOT AVBL
BARABOO/DELLS  CLEAR     54  34  47 W7        29.84S
LONE ROCK      NOT AVBL
MINERAL POINT  CLEAR     54  36  50 W10       29.89S
MADISON        CLEAR     56  37  49 VRB6      29.84F
MIDDLETON      NOT AVBL
WATERTOWN      CLEAR     50  41  70 SW7       29.83F
MONROE         CLEAR     54  36  50 SW14      29.88F
JANESVILLE     CLEAR     54  36  50 SW9       29.87F
$$

WIZ051-052-058>065-066-070>072-270600-
SOUTHEAST WISCONSIN

CITY           SKY/WX    TMP DP  RH WIND       PRES   REMARKS
MILWAUKEE      CLEAR     56  38  50 SW12      29.84F
WAUKESHA       CLEAR     50  37  62 SW10      29.85F
MILWAUKEE/TIMM CLEAR     52  36  54 SW7       29.84F
RACINE         CLEAR     54  37  52 SW7       29.86F
BURLINGTON     CLEAR     54  35  50 SW8       29.86F
KENOSHA        CLEAR     52  38  58 SW10      29.87F
FOND DU LAC    PTCLDY    52  40  63 SW7       29.80F
SHEBOYGAN      PTCLDY    51  41  68 SW10      29.78F
WEST BEND      CLEAR     48  39  71 CALM      29.81F
JUNEAU         CLEAR     47  40  75 SW6       29.84S
$$

LSZ147-162-270600-
LAKE SUPERIOR

STATION/POSITION TIME  TEMP    WIND        PRES    WAVE
                       AIR SEA DIR/SP/G            HT/PER
                 (UTC) (F)     (DEG/KT/KT) (MB)    (FT/S)
W MID LAKE BUOY  0350   51 46  260/ 21/ 23  999.9F   6/ 6
DEVILS ISLAND    0400   52     260/ 24/ 27 1003.0F
SAXON HARBOR     0440   54     250/  7/ 13 1004.1F
$$

LMZ867-665-643>646-270600-
LAKE MICHIGAN

STATION/POSITION TIME  TEMP    WIND        PRES    WAVE
                       AIR SEA DIR/SP/G            HT/PER
                 (UTC) (F)     (DEG/KT/KT) (MB)    (FT/S)
CHAMBERS ISLAND  0400   57     220/  9/ 20 1004.7F
N MID LAKE BUOY  0350   59 66  250/ 29/ 35 1003.2F   7/ 6
NORTHPORT PIER   0300   58     260/ 10/ 24 1005.8F
KEWAUNEE LAKESHO 0400   56     240/  6/ 14 1006.9F
SHEBOYGAN LAKESH 0400   55     230/  9/ 11 1008.9F
PORT WASHINGTON  0440   55     240/  5/  8 1010.2F
ATWATER BUOY     0400   58 54  230/ 10/ 14 1010.6F
MILWAUKEE LAKESH 0410   59     240/ 12/ 14   N/A
S MID LAKE BUOY  0350   66 71  260/ 21/ 25 1010.3F   5/ 5
KENOSHA   LAKESH 0400   60     250/ 12/ 15 1011.9F
$$

TC  - TEMPERATURE IN CELSIUS
VSB - VISIBILITY IN STATUTE MILES
WCI - WIND CHILL INDEX
HX  - HEAT INDEX





USA.gov is the U.S. government's official web portal to all federal, state and local government web resources and services.